Location: Maccacari
(45.1333°N, 11.1333°E)
Time: 01:52:21
(UTC+00:00)

A-11 Canister half - Pass Details

Date: 30 January 2021
Orbit: 1525 x 1684 km, 47.3° (Epoch: 07 March)

Event Time Altitude Azimuth Distance (km) Brightness Sun altitude
Rises 10:14:19 0° 192° (SSW) 4,666 12.4 25.1°
Reaches altitude 10° 10:18:06 10° 179° (S) 3,681 12.5 25.3°
Maximum altitude 10:25:00 24° 130° (SE) 2,747 11.6 25.7°
Drops below altitude 10° 10:31:55 10° 81° (E) 3,715 11.2 26.0°
Sets 10:35:43 0° 69° (ENE) 4,719 11.5 26.2°
